FDX5217 LTFM-EBLG

Flight info

Callsign FDX5217
Flight time 2h 46m
Altitude 36000
Route TUDBU Q26 ETUBA DCT NAVOD DCT INVED DCT ABETI DCT RENKA DCT MAMOR L610 INBED DCT LOHRE DCT BOMBI DCT IDOVI Z104 GESLO DCT LNO
Aircraft B77L/H-SDE1E2E3FGHIJ2J3J4J5M1RWXY/LB1D1

Departure

Time 2026-05-08 12:29
Airport İstanbul Airport (LTFM)

Arrival

Time 2026-05-08 15:15
Airport Liège Airport (EBLG)
Time Latitude Longitude Altitude Speed Heading
2026-05-08 12:17 41.25341 28.73626 308 ft 1 kts 89°
2026-05-08 12:18 41.25341 28.73613 309 ft 4 kts 94°
2026-05-08 12:18 41.25346 28.73586 308 ft 4 kts 134°
2026-05-08 12:18 41.25363 28.73573 307 ft 4 kts 175°
2026-05-08 12:19 41.25387 28.73572 308 ft 1 kts 179°
2026-05-08 12:19 41.25388 28.73572 308 ft 0 kts 179°
2026-05-08 12:20 41.25358 28.73573 309 ft 16 kts 178°
2026-05-08 12:20 41.25251 28.73530 311 ft 13 kts 252°
2026-05-08 12:21 41.25247 28.73408 308 ft 13 kts 269°
2026-05-08 12:21 41.25254 28.73286 309 ft 13 kts 299°
2026-05-08 12:21 41.25323 28.73209 312 ft 14 kts 295°
2026-05-08 12:21 41.25331 28.73084 311 ft 14 kts 270°
2026-05-08 12:22 41.25331 28.72892 311 ft 27 kts 268°
2026-05-08 12:22 41.25329 28.72635 311 ft 28 kts 270°
2026-05-08 12:22 41.25324 28.72378 308 ft 28 kts 269°
2026-05-08 12:22 41.25429 28.72197 309 ft 28 kts 348°
2026-05-08 12:23 41.25621 28.72192 310 ft 28 kts
2026-05-08 12:23 41.25813 28.72219 311 ft 28 kts 12°
2026-05-08 12:23 41.26002 28.72276 310 ft 28 kts 13°
2026-05-08 12:23 41.26192 28.72330 311 ft 28 kts
2026-05-08 12:24 41.26385 28.72323 311 ft 28 kts 354°
2026-05-08 12:24 41.26576 28.72298 309 ft 28 kts 356°
2026-05-08 12:24 41.26770 28.72290 309 ft 28 kts 358°
2026-05-08 12:24 41.26965 28.72280 309 ft 28 kts 358°
2026-05-08 12:25 41.27159 28.72273 310 ft 28 kts 359°
2026-05-08 12:25 41.27350 28.72270 309 ft 28 kts 359°
2026-05-08 12:25 41.27543 28.72267 310 ft 28 kts 358°
2026-05-08 12:25 41.27736 28.72257 310 ft 28 kts 359°
2026-05-08 12:26 41.27929 28.72252 311 ft 28 kts 359°
2026-05-08 12:26 41.28123 28.72248 309 ft 28 kts 359°
2026-05-08 12:26 41.28316 28.72247 311 ft 28 kts 360°
2026-05-08 12:26 41.28510 28.72245 309 ft 28 kts 359°
2026-05-08 12:27 41.28701 28.72245 311 ft 28 kts
2026-05-08 12:27 41.28894 28.72243 309 ft 28 kts 360°
2026-05-08 12:27 41.29088 28.72245 311 ft 28 kts 360°
2026-05-08 12:27 41.29281 28.72245 309 ft 28 kts
2026-05-08 12:28 41.29433 28.72247 311 ft 17 kts
2026-05-08 12:28 41.29481 28.72377 308 ft 17 kts 87°
2026-05-08 12:28 41.29397 28.72463 311 ft 17 kts 175°
2026-05-08 12:28 41.29196 28.72468 309 ft 61 kts 179°
2026-05-08 12:29 41.28381 28.72482 357 ft 164 kts 183°
2026-05-08 12:29 41.27197 28.72528 1552 ft 172 kts 186°
2026-05-08 12:29 41.25967 28.72560 2882 ft 185 kts 188°
2026-05-08 12:29 41.24568 28.72585 3358 ft 219 kts 185°
2026-05-08 12:30 41.22935 28.72655 3877 ft 242 kts 183°
2026-05-08 12:30 41.21267 28.72586 4838 ft 240 kts 200°
2026-05-08 12:30 41.19773 28.71510 5693 ft 247 kts 224°
2026-05-08 12:30 41.18650 28.69782 6585 ft 256 kts 236°
2026-05-08 12:31 41.17939 28.67560 7498 ft 263 kts 263°
2026-05-08 12:31 41.17946 28.65121 8449 ft 266 kts 270°
2026-05-08 12:31 41.17982 28.62672 9408 ft 271 kts 269°
2026-05-08 12:31 41.18068 28.60145 10285 ft 277 kts 282°
2026-05-08 12:32 41.18860 28.57754 10885 ft 297 kts 305°
2026-05-08 12:32 41.20480 28.55850 11141 ft 331 kts 331°
2026-05-08 12:32 41.22793 28.55058 11389 ft 365 kts 355°
2026-05-08 12:32 41.25401 28.55134 12018 ft 380 kts
2026-05-08 12:33 41.28084 28.55199 12947 ft 387 kts 359°
2026-05-08 12:33 41.30792 28.55182 13988 ft 390 kts 359°
2026-05-08 12:33 41.33529 28.55386 14863 ft 396 kts
2026-05-08 12:33 41.36259 28.55868 15639 ft 404 kts
2026-05-08 12:34 41.39076 28.56386 16423 ft 411 kts
2026-05-08 12:34 41.41935 28.56857 17258 ft 416 kts
2026-05-08 12:34 41.44834 28.57252 18094 ft 421 kts
2026-05-08 12:34 41.47785 28.57304 18827 ft 425 kts 357°
2026-05-08 12:35 41.50755 28.57171 19574 ft 428 kts 356°
2026-05-08 12:35 41.53755 28.57014 20335 ft 431 kts 356°
2026-05-08 12:35 41.56768 28.56889 21067 ft 435 kts 357°
2026-05-08 12:35 41.59787 28.56801 21771 ft 439 kts 357°
2026-05-08 12:36 41.62864 28.56736 22460 ft 444 kts 357°
2026-05-08 12:36 41.65969 28.56676 23128 ft 449 kts 357°
2026-05-08 12:36 41.69066 28.56305 23649 ft 449 kts 344°
2026-05-08 12:36 41.71937 28.54633 24081 ft 450 kts 324°
2026-05-08 12:37 41.74256 28.51845 24762 ft 447 kts 307°
2026-05-08 12:37 41.75930 28.48355 25485 ft 444 kts 295°
2026-05-08 12:37 41.76950 28.44507 26118 ft 444 kts 279°
2026-05-08 12:37 41.77205 28.40379 26719 ft 446 kts 272°
2026-05-08 12:38 41.77321 28.36193 27279 ft 449 kts 272°
2026-05-08 12:38 41.77484 28.32001 27847 ft 452 kts 273°
2026-05-08 12:38 41.77695 28.27788 28414 ft 454 kts 274°
2026-05-08 12:38 41.77847 28.24975 28796 ft 455 kts 274°
2026-05-08 12:39 41.78181 28.20754 29285 ft 457 kts 281°
2026-05-08 12:39 41.79690 28.15458 29834 ft 463 kts 299°
2026-05-08 12:39 41.80846 28.13029 30072 ft 466 kts 301°
2026-05-08 12:39 41.82603 28.09352 30468 ft 468 kts 300°
2026-05-08 12:40 41.84302 28.05639 31006 ft 465 kts 299°
2026-05-08 12:40 41.85956 28.01926 31600 ft 461 kts 298°
2026-05-08 12:40 41.87575 27.98266 32150 ft 459 kts 298°
2026-05-08 12:40 41.89228 27.94543 32652 ft 458 kts 298°
2026-05-08 12:41 41.90860 27.90870 33146 ft 457 kts 298°
2026-05-08 12:41 41.92466 27.87257 33634 ft 455 kts 298°
2026-05-08 12:41 41.94088 27.83603 34131 ft 454 kts 298°
2026-05-08 12:41 41.95697 27.79972 34547 ft 452 kts 298°
2026-05-08 12:42 41.97431 27.76435 34951 ft 453 kts 306°
2026-05-08 12:42 41.99563 27.73297 35350 ft 454 kts 311°
2026-05-08 12:42 42.01806 27.70294 35718 ft 454 kts 312°
2026-05-08 12:42 42.04064 27.67343 36071 ft 453 kts 312°
2026-05-08 12:43 42.08561 27.61394 36077 ft 454 kts 311°
2026-05-08 12:43 42.13015 27.55345 36075 ft 453 kts 311°
2026-05-08 12:44 42.17426 27.49269 36081 ft 453 kts 310°
2026-05-08 12:44 42.21807 27.43210 36074 ft 453 kts 310°
2026-05-08 12:45 42.26219 27.37098 36075 ft 454 kts 310°
2026-05-08 12:45 42.30606 27.31013 36074 ft 454 kts 310°
2026-05-08 12:46 42.35025 27.24872 36067 ft 455 kts 310°
2026-05-08 12:46 42.39417 27.18754 36061 ft 455 kts 310°
2026-05-08 12:47 42.43834 27.12589 36061 ft 456 kts 310°
2026-05-08 12:47 42.48260 27.06398 36060 ft 456 kts 310°
2026-05-08 12:48 42.52659 27.00230 36053 ft 457 kts 310°
2026-05-08 12:48 42.57081 26.94016 36051 ft 457 kts 310°
2026-05-08 12:49 42.61504 26.87788 36055 ft 458 kts 310°
2026-05-08 12:49 42.65909 26.81573 36055 ft 459 kts 310°
2026-05-08 12:50 42.70345 26.75299 36051 ft 459 kts 310°
2026-05-08 12:50 42.74772 26.69023 36052 ft 460 kts 310°
2026-05-08 12:51 42.81319 26.59508 36046 ft 458 kts 306°
2026-05-08 12:52 42.84935 26.52404 36047 ft 455 kts 300°
2026-05-08 12:52 42.90054 26.41517 36038 ft 456 kts 300°
2026-05-08 12:53 42.93498 26.34229 36039 ft 457 kts 300°
2026-05-08 12:53 42.96953 26.26937 36028 ft 457 kts 300°
2026-05-08 12:54 43.00393 26.19667 36036 ft 458 kts 300°
2026-05-08 12:54 43.03841 26.12363 36034 ft 458 kts 300°
2026-05-08 12:55 43.07297 26.05020 36028 ft 458 kts 300°
2026-05-08 12:55 43.10744 25.97679 36028 ft 458 kts 300°
2026-05-08 12:56 43.14193 25.90316 36035 ft 458 kts 300°
2026-05-08 12:56 43.17613 25.82995 36015 ft 459 kts 299°
2026-05-08 12:57 43.21062 25.75594 36015 ft 459 kts 299°
2026-05-08 12:57 43.24473 25.68255 36026 ft 460 kts 299°
2026-05-08 12:58 43.27917 25.60826 36009 ft 461 kts 299°
2026-05-08 12:58 43.31360 25.53383 36001 ft 461 kts 299°
2026-05-08 12:59 43.34774 25.45983 36005 ft 460 kts 299°
2026-05-08 12:59 43.38196 25.38548 36013 ft 460 kts 299°
2026-05-08 13:00 43.41620 25.31088 35997 ft 460 kts 299°
2026-05-08 13:00 43.45028 25.23642 35996 ft 460 kts 299°
2026-05-08 13:01 43.48430 25.16194 35994 ft 461 kts 299°
2026-05-08 13:01 43.51839 25.08709 35995 ft 461 kts 299°
2026-05-08 13:02 43.55256 25.01189 36001 ft 462 kts 298°
2026-05-08 13:02 43.58647 24.93706 35993 ft 462 kts 298°
2026-05-08 13:03 43.62065 24.86143 35998 ft 463 kts 298°
2026-05-08 13:03 43.65743 24.78793 35998 ft 467 kts 306°
2026-05-08 13:04 43.69938 24.72010 35999 ft 468 kts 307°
2026-05-08 13:04 43.74192 24.65175 36012 ft 469 kts 307°
2026-05-08 13:05 43.78434 24.58279 36010 ft 471 kts 307°
2026-05-08 13:05 43.82664 24.51348 35998 ft 470 kts 307°
2026-05-08 13:06 43.86869 24.44431 35998 ft 468 kts 307°
2026-05-08 13:06 43.91036 24.37557 35998 ft 467 kts 307°
2026-05-08 13:07 43.95213 24.30653 35998 ft 466 kts 306°
2026-05-08 13:07 43.99362 24.23780 36000 ft 466 kts 306°
2026-05-08 13:08 44.03543 24.16836 36000 ft 467 kts 306°
2026-05-08 13:08 44.07691 24.09931 36007 ft 467 kts 306°
2026-05-08 13:09 44.11869 24.02960 36028 ft 469 kts 306°
2026-05-08 13:09 44.13966 23.99454 36273 ft 470 kts 306°
2026-05-08 13:09 44.16031 23.95998 36691 ft 468 kts 306°
2026-05-08 13:10 44.18108 23.92522 37157 ft 465 kts 306°
2026-05-08 13:10 44.20171 23.89063 37589 ft 462 kts 306°
2026-05-08 13:10 44.22218 23.85626 37956 ft 461 kts 305°
2026-05-08 13:10 44.24274 23.82166 37992 ft 464 kts 305°
2026-05-08 13:11 44.28374 23.75255 38009 ft 463 kts 305°
2026-05-08 13:11 44.32468 23.68342 38016 ft 459 kts 305°
2026-05-08 13:12 44.36529 23.61469 38008 ft 457 kts 305°
2026-05-08 13:12 44.40548 23.54648 38004 ft 457 kts 305°
2026-05-08 13:13 44.44601 23.47752 38003 ft 457 kts 305°
2026-05-08 13:13 44.48643 23.40857 37998 ft 458 kts 305°
2026-05-08 13:14 44.52666 23.33980 38001 ft 459 kts 305°
2026-05-08 13:14 44.56732 23.27013 38001 ft 461 kts 304°
2026-05-08 13:15 44.60799 23.20029 37999 ft 461 kts 304°
2026-05-08 13:15 44.64836 23.13078 37994 ft 462 kts 304°
2026-05-08 13:16 44.68907 23.06051 37991 ft 462 kts 304°
2026-05-08 13:16 44.72965 22.99032 37991 ft 462 kts 304°
2026-05-08 13:17 44.76998 22.92036 37990 ft 462 kts 304°
2026-05-08 13:17 44.81048 22.84994 37995 ft 462 kts 304°
2026-05-08 13:18 44.85085 22.77957 37995 ft 461 kts 304°
2026-05-08 13:18 44.89114 22.70918 38008 ft 461 kts 304°
2026-05-08 13:19 44.93117 22.63905 38007 ft 460 kts 304°
2026-05-08 13:19 44.97139 22.56842 38008 ft 460 kts 304°
2026-05-08 13:20 45.01125 22.49825 38018 ft 459 kts 304°
2026-05-08 13:20 45.05101 22.42809 38022 ft 458 kts 304°
2026-05-08 13:21 45.09093 22.35747 38033 ft 458 kts 304°
2026-05-08 13:21 45.12405 22.29872 38031 ft 458 kts 304°
2026-05-08 13:22 45.17024 22.21660 38039 ft 458 kts 304°
2026-05-08 13:22 45.20989 22.14594 38017 ft 457 kts 304°
2026-05-08 13:23 45.24283 22.08710 38044 ft 457 kts 303°
2026-05-08 13:23 45.28231 22.01641 38024 ft 456 kts 303°
2026-05-08 13:24 45.32172 21.94567 38023 ft 456 kts 303°
2026-05-08 13:24 45.36094 21.87508 38027 ft 456 kts 303°
2026-05-08 13:25 45.40029 21.80408 38024 ft 456 kts 303°
2026-05-08 13:25 45.43960 21.73299 38021 ft 456 kts 303°
2026-05-08 13:26 45.47897 21.66161 38019 ft 456 kts 303°
2026-05-08 13:26 45.51811 21.59047 38021 ft 456 kts 303°
2026-05-08 13:27 45.55721 21.51920 38022 ft 455 kts 303°
2026-05-08 13:27 45.59600 21.44833 38024 ft 455 kts 303°
2026-05-08 13:28 45.63495 21.37700 38020 ft 455 kts 303°
2026-05-08 13:28 45.67387 21.30554 38024 ft 454 kts 303°
2026-05-08 13:29 45.71273 21.23402 38026 ft 454 kts 303°
2026-05-08 13:29 45.75147 21.16252 38023 ft 454 kts 303°
2026-05-08 13:30 45.78994 21.09133 38024 ft 454 kts 303°
2026-05-08 13:30 45.82859 21.01963 38025 ft 454 kts 303°
2026-05-08 13:31 45.86693 20.94834 38025 ft 453 kts 303°
2026-05-08 13:31 45.90552 20.87640 38030 ft 453 kts 303°
2026-05-08 13:32 45.94395 20.80456 38028 ft 453 kts 303°
2026-05-08 13:32 45.98213 20.73301 38031 ft 453 kts 303°
2026-05-08 13:33 46.02047 20.66098 38036 ft 453 kts 303°
2026-05-08 13:33 46.05878 20.58880 38037 ft 453 kts 303°
2026-05-08 13:34 46.09703 20.51656 38036 ft 453 kts 303°
2026-05-08 13:34 46.13505 20.44459 38035 ft 453 kts 303°
2026-05-08 13:35 46.17287 20.37192 38026 ft 452 kts 301°
2026-05-08 13:35 46.20847 20.29718 38027 ft 451 kts 300°
2026-05-08 13:36 46.24346 20.22199 38034 ft 450 kts 300°
2026-05-08 13:36 46.27842 20.14734 38036 ft 450 kts 300°
2026-05-08 13:37 46.31375 20.07226 38042 ft 450 kts 300°
2026-05-08 13:37 46.34905 19.99724 38043 ft 450 kts 300°
2026-05-08 13:38 46.38409 19.92258 38049 ft 450 kts 300°
2026-05-08 13:38 46.41926 19.84742 38042 ft 450 kts 300°
2026-05-08 13:39 46.45446 19.77198 38047 ft 450 kts 300°
2026-05-08 13:39 46.48940 19.69689 38047 ft 451 kts 300°
2026-05-08 13:40 46.52441 19.62145 38043 ft 451 kts 300°
2026-05-08 13:40 46.55940 19.54584 38047 ft 451 kts 300°
2026-05-08 13:41 46.59442 19.46997 38047 ft 451 kts 300°
2026-05-08 13:41 46.62916 19.39452 38045 ft 451 kts 300°
2026-05-08 13:42 46.66407 19.31847 38050 ft 451 kts 299°
2026-05-08 13:42 46.69886 19.24246 38042 ft 451 kts 299°
2026-05-08 13:43 46.73340 19.16682 38041 ft 450 kts 299°
2026-05-08 13:43 46.76806 19.09069 38042 ft 450 kts 299°
2026-05-08 13:44 46.80279 19.01421 38041 ft 450 kts 299°
2026-05-08 13:44 46.83717 18.93829 38051 ft 450 kts 299°
2026-05-08 13:45 46.87175 18.86170 38046 ft 450 kts 299°
2026-05-08 13:45 46.90622 18.78515 38043 ft 450 kts 299°
2026-05-08 13:46 46.94041 18.70902 38042 ft 450 kts 299°
2026-05-08 13:46 46.97479 18.63226 38043 ft 450 kts 299°
2026-05-08 13:47 47.00887 18.55595 38041 ft 449 kts 299°
2026-05-08 13:47 47.04305 18.47920 38041 ft 449 kts 299°
2026-05-08 13:48 47.07720 18.40231 38037 ft 449 kts 299°
2026-05-08 13:48 47.11114 18.32568 38043 ft 449 kts 298°
2026-05-08 13:49 47.14518 18.24860 38046 ft 449 kts 298°
2026-05-08 13:49 47.17917 18.17143 38046 ft 449 kts 298°
2026-05-08 13:50 47.21286 18.09472 38052 ft 449 kts 298°
2026-05-08 13:50 47.24673 18.01740 38051 ft 449 kts 298°
2026-05-08 13:51 47.28060 17.93984 38058 ft 449 kts 298°
2026-05-08 13:51 47.31418 17.86272 38071 ft 449 kts 298°
2026-05-08 13:52 47.34795 17.78496 38065 ft 450 kts 298°
2026-05-08 13:52 47.38167 17.70709 38075 ft 450 kts 298°
2026-05-08 13:53 47.41516 17.62952 38072 ft 450 kts 298°
2026-05-08 13:53 47.44885 17.55129 38075 ft 451 kts 298°
2026-05-08 13:54 47.48248 17.47297 38076 ft 451 kts 298°
2026-05-08 13:54 47.51607 17.39449 38073 ft 451 kts 298°
2026-05-08 13:55 47.54947 17.31625 38071 ft 451 kts 298°
2026-05-08 13:56 47.59966 17.19826 38053 ft 452 kts 298°
2026-05-08 13:56 47.63312 17.11930 38057 ft 452 kts 298°
2026-05-08 13:57 47.66632 17.04067 38058 ft 452 kts 297°
2026-05-08 13:57 47.69430 16.95737 38064 ft 447 kts 289°
2026-05-08 13:58 47.71784 16.87142 38060 ft 448 kts 289°
2026-05-08 13:58 47.74121 16.78552 38064 ft 448 kts 289°
2026-05-08 13:59 47.76476 16.69949 38060 ft 449 kts 289°
2026-05-08 13:59 47.78829 16.61368 38069 ft 449 kts 289°
2026-05-08 14:00 47.81187 16.52748 38063 ft 450 kts 289°
2026-05-08 14:00 47.83528 16.44158 38066 ft 450 kts 289°
2026-05-08 14:01 47.85875 16.35511 38067 ft 450 kts 289°
2026-05-08 14:01 47.88220 16.26839 38063 ft 451 kts 288°
2026-05-08 14:02 47.90165 16.19624 38065 ft 451 kts 288°
2026-05-08 14:02 47.92498 16.10940 38063 ft 450 kts 288°
2026-05-08 14:03 47.94812 16.02296 38061 ft 451 kts 288°
2026-05-08 14:03 47.97129 15.93605 38055 ft 451 kts 288°
2026-05-08 14:04 47.99446 15.84881 38067 ft 450 kts 288°
2026-05-08 14:04 48.01740 15.76213 38066 ft 451 kts 288°
2026-05-08 14:05 48.04046 15.67466 38064 ft 451 kts 288°
2026-05-08 14:05 48.06342 15.58721 38067 ft 452 kts 288°
2026-05-08 14:06 48.08623 15.50006 38060 ft 452 kts 288°
2026-05-08 14:06 48.10909 15.41238 38058 ft 452 kts 288°
2026-05-08 14:07 48.13191 15.32450 38057 ft 452 kts 288°
2026-05-08 14:07 48.15451 15.23714 38053 ft 452 kts 288°
2026-05-08 14:08 48.17715 15.14930 38057 ft 452 kts 288°
2026-05-08 14:08 48.19975 15.06127 38057 ft 452 kts 288°
2026-05-08 14:09 48.22230 14.97309 38062 ft 452 kts 288°
2026-05-08 14:09 48.24459 14.88555 38070 ft 452 kts 288°
2026-05-08 14:10 48.26703 14.79713 38060 ft 452 kts 288°
2026-05-08 14:10 48.28940 14.70864 38066 ft 453 kts 288°
2026-05-08 14:11 48.31156 14.62063 38066 ft 453 kts 288°
2026-05-08 14:11 48.33382 14.53185 38052 ft 453 kts 288°
2026-05-08 14:12 48.35601 14.44303 38046 ft 453 kts 288°
2026-05-08 14:12 48.37811 14.35423 38047 ft 453 kts 287°
2026-05-08 14:13 48.40003 14.26579 38046 ft 454 kts 287°
2026-05-08 14:13 48.42202 14.17668 38045 ft 454 kts 287°
2026-05-08 14:14 48.44400 14.08729 38055 ft 454 kts 287°
2026-05-08 14:14 48.46593 13.99776 38061 ft 454 kts 287°
2026-05-08 14:15 48.48774 13.90830 38072 ft 455 kts 287°
2026-05-08 14:15 48.50942 13.81905 38064 ft 455 kts 287°
2026-05-08 14:16 48.53118 13.72910 38064 ft 456 kts 287°
2026-05-08 14:16 48.55272 13.63970 38070 ft 456 kts 287°
2026-05-08 14:17 48.57439 13.54942 38078 ft 456 kts 287°
2026-05-08 14:17 48.59602 13.45918 38073 ft 457 kts 287°
2026-05-08 14:18 48.61764 13.36937 38074 ft 457 kts 287°
2026-05-08 14:18 48.63933 13.27897 38075 ft 458 kts 287°
2026-05-08 14:19 48.66102 13.18813 38072 ft 458 kts 287°
2026-05-08 14:19 48.68269 13.09694 38082 ft 459 kts 287°
2026-05-08 14:20 48.70412 13.00635 38081 ft 459 kts 287°
2026-05-08 14:20 48.72559 12.91527 38080 ft 459 kts 287°
2026-05-08 14:21 48.74699 12.82403 38082 ft 460 kts 287°
2026-05-08 14:21 48.76836 12.73257 38085 ft 460 kts 287°
2026-05-08 14:22 48.78975 12.64064 38088 ft 461 kts 287°
2026-05-08 14:22 48.81108 12.54857 38087 ft 461 kts 287°
2026-05-08 14:23 48.83234 12.45641 38083 ft 462 kts 287°
2026-05-08 14:23 48.85343 12.36460 38086 ft 462 kts 287°
2026-05-08 14:24 48.87455 12.27234 38088 ft 463 kts 287°
2026-05-08 14:24 48.89870 12.18139 38093 ft 465 kts 294°
2026-05-08 14:25 48.92821 12.09357 38085 ft 466 kts 295°
2026-05-08 14:25 48.95770 12.00630 38091 ft 466 kts 295°
2026-05-08 14:26 48.98706 11.91808 38091 ft 466 kts 294°
2026-05-08 14:26 49.01616 11.82983 38088 ft 466 kts 294°
2026-05-08 14:27 49.04524 11.74129 38090 ft 466 kts 294°
2026-05-08 14:27 49.07415 11.65299 38091 ft 467 kts 294°
2026-05-08 14:28 49.10311 11.56425 38088 ft 467 kts 294°
2026-05-08 14:28 49.13195 11.47563 38085 ft 467 kts 294°
2026-05-08 14:29 49.16073 11.38667 38079 ft 467 kts 294°
2026-05-08 14:29 49.18949 11.29740 38080 ft 468 kts 294°
2026-05-08 14:30 49.22313 11.21190 38093 ft 470 kts 304°
2026-05-08 14:30 49.26598 11.13572 38087 ft 473 kts 311°
2026-05-08 14:31 49.31189 11.06389 38104 ft 474 kts 312°
2026-05-08 14:31 49.35773 10.99092 38101 ft 474 kts 311°
2026-05-08 14:32 49.42085 10.87578 38092 ft 472 kts 304°
2026-05-08 14:32 49.45948 10.79369 38108 ft 471 kts 303°
2026-05-08 14:33 49.49776 10.71224 38102 ft 472 kts 304°
2026-05-08 14:33 49.53637 10.63055 38094 ft 472 kts 304°
2026-05-08 14:34 49.57513 10.54862 38090 ft 472 kts 304°
2026-05-08 14:34 49.61375 10.46677 38093 ft 472 kts 304°
2026-05-08 14:35 49.65213 10.38513 38097 ft 472 kts 304°
2026-05-08 14:35 49.69092 10.30236 38106 ft 472 kts 304°
2026-05-08 14:36 49.72919 10.22042 38100 ft 472 kts 304°
2026-05-08 14:36 49.76759 10.13797 38102 ft 472 kts 304°
2026-05-08 14:37 49.80595 10.05533 38113 ft 471 kts 304°
2026-05-08 14:37 49.84395 9.97323 38105 ft 471 kts 303°
2026-05-08 14:38 49.87572 9.90438 38107 ft 471 kts 303°
2026-05-08 14:38 49.91384 9.82153 38109 ft 471 kts 303°
2026-05-08 14:39 49.95169 9.73901 38101 ft 471 kts 303°
2026-05-08 14:39 49.98958 9.65614 38105 ft 470 kts 303°
2026-05-08 14:40 50.02748 9.57303 38108 ft 470 kts 303°
2026-05-08 14:40 50.05779 9.48381 38109 ft 466 kts 285°
2026-05-08 14:41 50.06729 9.38484 38102 ft 463 kts 269°
2026-05-08 14:41 50.06532 9.28461 38102 ft 463 kts 267°
2026-05-08 14:42 50.06313 9.18397 38098 ft 464 kts 268°
2026-05-08 14:42 50.06149 9.08325 38094 ft 464 kts 268°
2026-05-08 14:43 50.06139 9.07656 38095 ft 464 kts 268°
2026-05-08 14:43 50.06017 8.99431 38096 ft 465 kts 268°
2026-05-08 14:44 50.05860 8.89421 38095 ft 465 kts 268°
2026-05-08 14:44 50.05706 8.79351 38098 ft 465 kts 270°
2026-05-08 14:45 50.05852 8.69263 38108 ft 465 kts 271°
2026-05-08 14:45 50.06079 8.59170 38101 ft 465 kts 271°
2026-05-08 14:46 50.06285 8.49125 38108 ft 465 kts 271°
2026-05-08 14:46 50.06464 8.39041 38104 ft 465 kts 271°
2026-05-08 14:47 50.06629 8.28967 38103 ft 465 kts 271°
2026-05-08 14:47 50.06784 8.18963 38098 ft 465 kts 271°
2026-05-08 14:48 50.06932 8.08881 38104 ft 464 kts 271°
2026-05-08 14:48 50.07071 7.98816 38102 ft 464 kts 270°
2026-05-08 14:49 50.07202 7.88754 38099 ft 464 kts 270°
2026-05-08 14:49 50.07324 7.78690 38098 ft 464 kts 270°
2026-05-08 14:50 50.07438 7.68629 38098 ft 463 kts 270°
2026-05-08 14:50 50.07542 7.58639 38100 ft 463 kts 270°
2026-05-08 14:51 50.07638 7.48603 38097 ft 463 kts 270°
2026-05-08 14:51 50.07726 7.38548 38102 ft 463 kts 270°
2026-05-08 14:52 50.07984 7.23576 38098 ft 463 kts 273°
2026-05-08 14:52 50.08201 7.18567 37769 ft 468 kts 273°
2026-05-08 14:53 50.08435 7.13464 37020 ft 473 kts 273°
2026-05-08 14:53 50.08665 7.08371 36291 ft 470 kts 273°
2026-05-08 14:53 50.08883 7.03289 35528 ft 468 kts 272°
2026-05-08 14:53 50.09091 6.98223 34708 ft 468 kts 272°
2026-05-08 14:54 50.09294 6.93148 33813 ft 468 kts 272°
2026-05-08 14:54 50.09480 6.88088 32811 ft 467 kts 271°
2026-05-08 14:54 50.09471 6.83093 31861 ft 466 kts 267°
2026-05-08 14:54 50.09363 6.77970 30874 ft 467 kts 266°
2026-05-08 14:55 50.09255 6.73005 30218 ft 461 kts 266°
2026-05-08 14:55 50.09142 6.68036 29442 ft 457 kts 266°
2026-05-08 14:55 50.09028 6.63112 28750 ft 451 kts 266°
2026-05-08 14:55 50.08915 6.58247 28097 ft 445 kts 266°
2026-05-08 14:56 50.08803 6.53437 27450 ft 440 kts 266°
2026-05-08 14:56 50.08694 6.48750 26819 ft 435 kts 266°
2026-05-08 14:56 50.08581 6.43991 26182 ft 431 kts 266°
2026-05-08 14:56 50.08470 6.39394 25576 ft 427 kts 266°
2026-05-08 14:57 50.08374 6.34768 24960 ft 424 kts 267°
2026-05-08 14:57 50.08285 6.30144 24359 ft 421 kts 267°
2026-05-08 14:57 50.08196 6.25650 23776 ft 418 kts 267°
2026-05-08 14:57 50.08101 6.21079 23106 ft 415 kts 267°
2026-05-08 14:58 50.07973 6.16603 22452 ft 411 kts 266°
2026-05-08 14:58 50.07825 6.12161 21865 ft 407 kts 266°
2026-05-08 14:58 50.07908 6.07795 21259 ft 401 kts 279°
2026-05-08 14:58 50.08849 6.03789 20735 ft 401 kts 298°
2026-05-08 14:59 50.10577 6.00347 20189 ft 401 kts 314°
2026-05-08 14:59 50.15303 5.95918 19129 ft 397 kts 338°
2026-05-08 14:59 50.17900 5.94458 18578 ft 395 kts 339°
2026-05-08 15:00 50.20461 5.93065 18004 ft 394 kts 339°
2026-05-08 15:00 50.23051 5.91643 17420 ft 392 kts 339°
2026-05-08 15:00 50.25609 5.90214 16855 ft 389 kts 339°
2026-05-08 15:00 50.28146 5.88773 16326 ft 385 kts 339°
2026-05-08 15:01 50.30655 5.87331 15782 ft 382 kts 339°
2026-05-08 15:01 50.33148 5.85888 15251 ft 379 kts 339°
2026-05-08 15:01 50.35608 5.84459 14720 ft 376 kts 339°
2026-05-08 15:01 50.38060 5.83031 14210 ft 373 kts 339°
2026-05-08 15:02 50.40488 5.81613 13677 ft 371 kts 339°
2026-05-08 15:02 50.42901 5.80204 13108 ft 368 kts 338°
2026-05-08 15:02 50.45304 5.78801 12579 ft 365 kts 338°
2026-05-08 15:02 50.47635 5.77438 12440 ft 350 kts 338°
2026-05-08 15:03 50.49881 5.76124 12292 ft 338 kts 338°
2026-05-08 15:03 50.52044 5.74856 12150 ft 325 kts 338°
2026-05-08 15:03 50.54126 5.73636 12018 ft 313 kts 338°
2026-05-08 15:03 50.56134 5.72457 11886 ft 302 kts 338°
2026-05-08 15:04 50.57957 5.71073 11756 ft 283 kts 319°
2026-05-08 15:04 50.59230 5.68806 11504 ft 276 kts 297°
2026-05-08 15:04 50.60057 5.66088 11231 ft 278 kts 292°
2026-05-08 15:04 50.60845 5.63251 10925 ft 286 kts 291°
2026-05-08 15:05 50.61638 5.60389 10609 ft 291 kts 292°
2026-05-08 15:05 50.62456 5.57473 10301 ft 288 kts 292°
2026-05-08 15:05 50.63266 5.54607 10152 ft 277 kts 292°
2026-05-08 15:05 50.64034 5.51890 9874 ft 273 kts 292°
2026-05-08 15:06 50.64801 5.49171 9552 ft 268 kts 291°
2026-05-08 15:06 50.65145 5.47394 9329 ft 260 kts 275°
2026-05-08 15:06 50.65019 5.44594 9084 ft 260 kts 255°
2026-05-08 15:06 50.64535 5.41784 8792 ft 267 kts 253°
2026-05-08 15:07 50.64034 5.38941 8475 ft 271 kts 254°
2026-05-08 15:07 50.63531 5.36087 8166 ft 269 kts 254°
2026-05-08 15:07 50.63033 5.33249 7861 ft 265 kts 254°
2026-05-08 15:07 50.62549 5.30472 7550 ft 261 kts 253°
2026-05-08 15:08 50.62070 5.27723 7262 ft 260 kts 254°
2026-05-08 15:08 50.61594 5.24978 6979 ft 260 kts 253°
2026-05-08 15:08 50.61113 5.22215 6696 ft 261 kts 254°
2026-05-08 15:08 50.60628 5.19439 6393 ft 263 kts 254°
2026-05-08 15:09 50.60059 5.16727 6051 ft 258 kts 240°
2026-05-08 15:09 50.58897 5.14607 5788 ft 249 kts 221°
2026-05-08 15:09 50.57395 5.13250 5490 ft 256 kts 192°
2026-05-08 15:09 50.55636 5.13279 5251 ft 260 kts 162°
2026-05-08 15:10 50.54068 5.14681 4884 ft 264 kts 139°
2026-05-08 15:10 50.52741 5.16705 4415 ft 264 kts 129°
2026-05-08 15:10 50.51854 5.19080 4246 ft 241 kts 108°
2026-05-08 15:10 50.51667 5.21418 4066 ft 215 kts 84°
2026-05-08 15:11 50.52013 5.23609 3857 ft 206 kts 69°
2026-05-08 15:11 50.52632 5.25600 3623 ft 199 kts 62°
2026-05-08 15:11 50.53352 5.27380 3408 ft 185 kts 54°
2026-05-08 15:11 50.54115 5.28926 3187 ft 177 kts 53°
2026-05-08 15:12 50.54911 5.30398 2937 ft 173 kts 48°
2026-05-08 15:12 50.55715 5.31716 2747 ft 163 kts 47°
2026-05-08 15:12 50.56478 5.32921 2490 ft 147 kts 46°
2026-05-08 15:12 50.57181 5.34032 2315 ft 145 kts 46°
2026-05-08 15:13 50.57913 5.35190 2100 ft 149 kts 46°
2026-05-08 15:13 50.58642 5.36346 1902 ft 150 kts 46°
2026-05-08 15:13 50.59367 5.37491 1701 ft 146 kts 47°
2026-05-08 15:13 50.60080 5.38618 1495 ft 144 kts 46°
2026-05-08 15:14 50.60788 5.39744 1296 ft 143 kts 45°
2026-05-08 15:14 50.61487 5.40849 1108 ft 141 kts 45°
2026-05-08 15:14 50.62188 5.41950 892 ft 144 kts 45°
2026-05-08 15:14 50.62875 5.43054 692 ft 142 kts 45°
2026-05-08 15:15 50.63548 5.44106 643 ft 125 kts 44°
2026-05-08 15:15 50.64053 5.44907 635 ft 80 kts 45°
2026-05-08 15:15 50.64339 5.45358 631 ft 36 kts 47°
2026-05-08 15:15 50.64389 5.45599 620 ft 19 kts 90°
2026-05-08 15:16 50.64312 5.45694 624 ft 16 kts 204°
2026-05-08 15:16 50.64237 5.45565 628 ft 16 kts 226°
2026-05-08 15:16 50.64159 5.45441 631 ft 16 kts 225°
2026-05-08 15:16 50.64096 5.45340 629 ft 3 kts 226°
2026-05-08 15:17 50.64093 5.45335 630 ft 1 kts 226°
2026-05-08 15:17 50.64044 5.45256 631 ft 18 kts 225°
2026-05-08 15:17 50.63952 5.45120 629 ft 18 kts 227°
2026-05-08 15:17 50.63866 5.44976 638 ft 18 kts 225°
2026-05-08 15:18 50.63778 5.44837 640 ft 17 kts 225°
2026-05-08 15:18 50.63715 5.44737 639 ft 12 kts 221°
2026-05-08 15:18 50.63647 5.44769 636 ft 9 kts 137°
2026-05-08 15:18 50.63633 5.44793 634 ft 0 kts 134°